Content
SEND FEEDBACK

Daily
Averages
Monthly
Summary
United States of America

SEDONA, ARIZONA


Home > North America > United States > Arizona
Elevation: 4827 feet     Latitude: 34 51N     Longitude: 111 47W

WEATHER
 
SELECT A DAY
Number of Records: 131,054;   Date Range: 1/4/95 - 9/22/14
 
SHARE

PRINT THIS DATA

[ ← Previous Day ]
WEATHER ALMANAC - SEPTEMBER 15, 2013
[ Next Day → ]
[ °C ]   °F
Weather ElementAverageHighLow
Temperature73.6 °F86 °F (12:55 pm)62.6 °F (5:15 am)
Dewpoint49.4 °F53.6 °F (8:55 am)44.6 °F (1:15 pm)
Humidity44.3 %64 % (12:35 am)23 % (1:15 pm)
Barometer30.04 in30.08 in (8:55 am)29.99 in (12:35 am)
Wind Speed8.2 mph16.1 mph (4:35 pm)
Wind Gust29.9 mph (4:35 pm)
Weather ElementAverage
Visibility10 mi
Wind DirectionENE (75.2 °)

Weather ElementTotal
Precipitation---
Cooling Degree Days9.3 (Base 65)
Growing Degree Days24.3 (Base 50)
Averaged from 71 records on September 15, 2013
WEATHER CONDITIONS BREAKOUT
WIND DIRECTION BREAKOUT
WEATHER BY HOUR - SEPTEMBER 15, 2013
[ °C ]   °F
Local TimeTemperatureDewpointHumidityBarometerVisibilityWind DirectionWind SpeedGust SpeedPrecipitationEventsConditions
12:35 AM64.4 °F51.8 °F64 %29.99 in10.0 miNE (40°)10.4 mphClear
12:55 AM66.2 °F50.0 °F56 %29.99 in10.0 miNE (50°)10.4 mphClear
1:15 AM64.4 °F51.8 °F64 %29.99 in10.0 miNE (40°)10.4 mphClear
1:35 AM64.4 °F51.8 °F64 %29.99 in10.0 miNE (40°)10.4 mphClear
1:55 AM64.4 °F50.0 °F59 %29.99 in10.0 miNE (40°)12.7 mphClear
2:15 AM64.4 °F50.0 °F59 %29.99 in10.0 miNE (40°)12.7 mphClear
2:35 AM64.4 °F50.0 °F59 %29.99 in10.0 miNNE (30°)13.8 mphClear
2:55 AM64.4 °F50.0 °F59 %29.99 in10.0 miNE (40°)13.8 mphClear
3:15 AM64.4 °F50.0 °F59 %29.99 in10.0 miNE (50°)12.7 mph17.3 mphClear
3:35 AM64.4 °F50.0 °F59 %29.99 in10.0 miNE (50°)11.5 mphClear
3:55 AM64.4 °F50.0 °F59 %30.00 in10.0 miNE (50°)13.8 mphClear
4:15 AM64.4 °F50.0 °F59 %30.00 in10.0 miNE (50°)10.4 mphClear
4:35 AM64.4 °F50.0 °F59 %30.00 in10.0 miNE (50°)6.9 mphClear
4:55 AM64.4 °F50.0 °F59 %30.02 in10.0 miNE (40°)9.2 mphClear
5:15 AM62.6 °F50.0 °F63 %30.02 in10.0 miNE (50°)8.1 mphClear
5:35 AM62.6 °F50.0 °F63 %30.02 in10.0 miNE (40°)12.7 mphClear
5:55 AM62.6 °F50.0 °F63 %30.02 in10.0 miNE (40°)11.5 mphClear
6:15 AM62.6 °F50.0 °F63 %30.03 in10.0 miNE (50°)10.4 mphClear
6:35 AM62.6 °F50.0 °F63 %30.03 in10.0 miNE (50°)11.5 mphClear
6:55 AM64.4 °F50.0 °F59 %30.04 in10.0 miNE (50°)9.2 mphClear
7:15 AM66.2 °F50.0 °F56 %30.05 in10.0 miENE (60°)6.9 mphClear
7:35 AM68.0 °F50.0 °F52 %30.05 in10.0 miEast (80°)3.5 mphClear
7:55 AM69.8 °F50.0 °F49 %30.06 in10.0 miEast (80°)3.5 mphClear
8:15 AM71.6 °F51.8 °F50 %30.06 in10.0 miCalmClear
8:35 AM71.6 °F51.8 °F50 %30.07 in10.0 miCalmClear
8:55 AM73.4 °F53.6 °F50 %30.08 in10.0 miSE (130°)4.6 mphClear
9:15 AM73.4 °F51.8 °F47 %30.08 in10.0 miSSE (160°)3.5 mphClear
9:35 AM75.2 °F51.8 °F44 %30.08 in10.0 miSE (130°)3.5 mphClear
9:55 AM77.0 °F51.8 °F41 %30.08 in10.0 miCalmClear
10:15 AM78.8 °F53.6 °F42 %30.08 in10.0 miSouth (180°)3.5 mphClear
10:35 AM78.8 °F53.6 °F42 %30.08 in10.0 miSouth (180°)4.6 mphClear
10:55 AM80.6 °F51.8 °F37 %30.08 in10.0 miSouth (170°)3.5 mphClear
11:15 AM80.6 °F51.8 °F37 %30.08 in10.0 miSSW (210°)3.5 mphClear
11:35 AM80.6 °F51.8 °F37 %30.08 in10.0 miCalmClear
11:55 AM82.4 °F51.8 °F35 %30.07 in10.0 miSouth (180°)5.8 mphClear
12:15 PM82.4 °F51.8 °F35 %30.06 in10.0 miCalmClear
12:35 PM82.4 °F51.8 °F35 %30.06 in10.0 miSouth (170°)5.8 mphClear
12:55 PM86.0 °F50.0 °F29 %30.06 in10.0 miSouth (170°)5.8 mphClear
1:15 PM86.0 °F44.6 °F23 %30.05 in10.0 miSouth (180°)4.6 mphClear
1:35 PM82.4 °F44.6 °F26 %30.04 in10.0 miWSW (250°)5.8 mphClear
1:55 PM84.2 °F48.2 °F29 %30.04 in10.0 miSSE (150°)5.8 mphClear
2:15 PM84.2 °F50.0 °F30 %30.03 in10.0 miSSW (200°)4.6 mphThunderstormThunderstorm
2:35 PM86.0 °F50.0 °F29 %30.03 in10.0 miNNE (20°)4.6 mphScattered Clouds
2:55 PM84.2 °F50.0 °F30 %30.03 in10.0 miNorth (10°)5.8 mphScattered Clouds
3:15 PM86.0 °F50.0 °F29 %30.02 in10.0 miENE (60°)4.6 mphClear
3:35 PM82.4 °F50.0 °F32 %30.02 in10.0 miNE (40°)10.4 mphThunderstormScattered Clouds
3:55 PM82.4 °F48.2 °F30 %30.02 in10.0 miEast (80°)6.9 mphThunderstormScattered Clouds
4:15 PM82.4 °F50.0 °F32 %30.02 in10.0 miENE (70°)8.1 mphThunderstormClear
4:35 PM80.6 °F51.8 °F37 %30.02 in10.0 miESE (120°)16.1 mph29.9 mphThunderstormClear
4:55 PM80.6 °F50.0 °F34 %30.03 in10.0 miESE (120°)11.5 mph17.3 mphClear
5:15 PM78.8 °F48.2 °F34 %30.03 in10.0 miESE (120°)5.8 mphClear
5:35 PM78.8 °F44.6 °F30 %30.03 in10.0 miEast (90°)3.5 mphClear
5:55 PM78.8 °F44.6 °F30 %30.03 in10.0 miEast (90°)5.8 mphClear
6:15 PM77.0 °F46.4 °F34 %30.03 in10.0 miENE (60°)5.8 mphClear
6:35 PM77.0 °F50.0 °F39 %30.03 in10.0 miNNE (20°)6.9 mphClear
6:55 PM73.4 °F51.8 °F47 %30.03 in10.0 miNNE (30°)9.2 mphClear
7:15 PM75.2 °F50.0 °F41 %30.03 in10.0 miENE (60°)9.2 mphClear
7:35 PM73.4 °F50.0 °F44 %30.04 in10.0 miNE (50°)8.1 mphClear
7:55 PM73.4 °F50.0 °F44 %30.05 in10.0 miENE (70°)8.1 mphClear
8:15 PM73.4 °F51.8 °F47 %30.06 in10.0 miENE (60°)10.4 mphClear
8:35 PM73.4 °F50.0 °F44 %30.06 in10.0 miEast (80°)9.2 mphClear
8:55 PM71.6 °F48.2 °F43 %30.06 in10.0 miENE (60°)10.4 mphClear
9:15 PM73.4 °F44.6 °F36 %30.07 in10.0 miENE (60°)10.4 mphClear
9:35 PM73.4 °F44.6 °F36 %30.07 in10.0 miNE (50°)11.5 mph16.1 mphClear
9:55 PM73.4 °F44.6 °F36 %30.07 in10.0 miNE (50°)12.7 mphClear
10:15 PM73.4 °F44.6 °F36 %30.07 in10.0 miNE (50°)15.0 mph20.7 mphClear
10:35 PM73.4 °F44.6 °F36 %30.07 in10.0 miNE (50°)13.8 mphClear
10:55 PM73.4 °F44.6 °F36 %30.07 in10.0 miNE (50°)13.8 mphClear
11:15 PM73.4 °F44.6 °F36 %30.07 in10.0 miNE (50°)13.8 mph19.6 mphClear
11:35 PM73.4 °F44.6 °F36 %30.08 in10.0 miNE (40°)16.1 mph20.7 mphClear
11:55 PM73.4 °F44.6 °F36 %30.08 in10.0 miENE (60°)10.4 mphClear
Hourly data recorded from KSEZ, located miles away from Sedona, Arizona







STORIES FROM OUR PARTNERS